星链-5102 (STARLINK-5102 )

导读 | 星芒AI

STARLINK-5102 是 SpaceX Starlink 项目中的一颗低轨道通信卫星,属于第 51 批部署的星链卫星之一。该卫星旨在为全球用户提供高速互联网服务,特别关注网络覆盖不足的地区。它运行在约 550 公里的高度,采用先进的通信技术,支持宽带数据传输。STARLINK-5102 与星链系统中的其他卫星协同工作,提升网络稳定性和连接速度,推动全球互联网普及。

基本信息
目录编号:
55645
目录名称:
STARLINK-5102
国际标识:
2023-021T
轨道中心:
EARTH
卫星名称:
星链-5102
卫星全名:
星链-5102 (STARLINK-5102 )
卫星状态:
已陨落 最后检测时间 2024-08-21
发射日期:
2023-02-17 UTC
国别 :
美国 (US)
星等 :
--
轨道信息
数据来源 国际轨道数据
星历时间: 2024-08-21T22:07:08+0800
轨道信息已过期445天
半长轴: 6560.598km
偏心率: 0.0010851
轨道倾角: 69.987°
近地点辐角 243.375°
升交点赤经 157.813°
平近点角 275.954°
近地点: 175.344km
远地点: 189.582km
周期: 88.140分钟
每日圈数: 16.337577
详细信息
固有亮度:
5
最大亮度:
2.5
卫星平台:
Starlink v1.5
覆盖范围:
全球
运营商:
太空探索技术公司
运营商所在国:
美国
制造商(研发单位):
太空探索技术公司
制造商所在国:
美国
使用方式:
暂无
卫星简介
星链(Starlink)计划是由太空探索技术公司(SpaceX)提出的一个巨型低轨卫星互联网星座项目,计划在2019年至2024年间在太空搭建由约1.2万颗卫星组成的“星链”网络,其中1584颗将部署在地球上空550千米处的近地轨道,并从2020年开始工作。该卫星仍在工作。